Home   Weather   Burnaby   Past weeks

Flag for Canada Past Weather in Burnaby, British Columbia, Canada — Yesterday and Last 2 Weeks

50 °F

Light rain. Mostly cloudy.

Feels Like: 46 °F
Forecast: 46 / 51 °F
Wind: 9 mph from East

Location: Vancouver International Airport

Current Time: Oct 26, 2016 at 12:17:05 PM

Latest Report: Oct 26, 2016 at 11:00 AM

Visibility: 15 mi

Pressure: 29.83 "Hg

Humidity: 88%

Dew Point: 46 °F

Location of BurnabyLocation

Past Weather in Burnaby — Graph


Burnaby Temperature Yesterday

Maximum temperature yesterday: 57 °F (at 10:00 AM)
Minimum temperature yesterday: 50 °F (at 10:00 PM)
Average temperature yesterday: 54 °F

High & Low Weather Summary for the Past Weeks

High61 °F (Oct 23, 3:00 PM)100% (Oct 17, 9:00 AM)30.30 "Hg (Oct 17, 9:00 AM)
Low36 °F (Oct 12, 5:58 AM)47% (Oct 11, 1:00 PM)29.00 "Hg (Oct 15, 6:00 PM)
Average52 °F85%29.77 "Hg
* Reported Oct 11 11:00 AM — Oct 26 11:00 AM, Burnaby, Weather by CustomWeather, © 2016

Note: Actual official high and low records may vary slightly from our data, if they occured in-between our weather recording intervals... More about our weather records


Burnaby Weather History for the Previous 24 Hours

Scroll right to see more
Time TempWeatherWind HumidityBarometerVisibility
11:00 AM
Wed, Oct 26
50 °FLight rain. Mostly cloudy.9 mph88%29.83 "Hg15 mi
10:00 AM50 °FLight rain. Mostly cloudy.6 mph88%29.87 "Hg10 mi
9:00 AM48 °FLight rain. Mostly cloudy.5 mph94%29.86 "Hg15 mi
8:00 AM48 °FLight rain. Mostly cloudy.2 mph94%29.85 "Hg30 mi
7:00 AM48 °FMostly cloudy.3 mph94%29.86 "Hg20 mi
6:00 AM48 °FMostly cloudy.5 mph94%29.87 "Hg20 mi
5:00 AM48 °FMostly cloudy.5 mph87%29.89 "Hg20 mi
4:00 AM46 °FMostly cloudy.2 mph93%29.93 "Hg20 mi
3:00 AM48 °FPassing clouds.2 mph94%29.95 "Hg20 mi
2:00 AM45 °FPassing clouds.7 mph100%29.97 "Hg20 mi
1:00 AM45 °FClear.8 mph100%29.99 "Hg20 mi
12:00 AM52 °FPassing clouds.7 mph82%29.99 "Hg20 mi
11:00 PM
Tue, Oct 25
50 °FPassing clouds.7 mph88%30.01 "Hg20 mi
10:00 PM50 °FClear.8 mph88%30.01 "Hg20 mi
9:00 PM52 °FPassing clouds.8 mph82%30.01 "Hg20 mi
8:00 PM52 °FPassing clouds.9 mph88%30.01 "Hg20 mi
7:00 PM52 °FPartly cloudy.9 mph82%30.00 "Hg20 mi
6:00 PM55 °FScattered clouds.10 mph77%29.99 "Hg20 mi
5:00 PM57 °FBroken clouds.7 mph72%29.98 "Hg20 mi
4:00 PM57 °FMostly cloudy.6 mph77%29.97 "Hg20 mi
3:00 PM55 °FCloudy.8 mph88%29.96 "Hg15 mi
2:00 PM55 °FLight rain. Cloudy.8 mph82%29.95 "Hg15 mi
1:00 PM54 °FLight rain. Cloudy.8 mph82%29.94 "Hg12 mi
12:00 PM55 °FLight rain. Cloudy.13 mph77%29.92 "Hg12 mi
Weather by CustomWeather, © 2016

See weather overviewHow to use our weather pages